Estherville, IA

1:42 PM CDT on July 23, 2017 (GMT -0500)
Estherville Municipal

Weather History for KEST - January, 2011

Change the Weather History Date:

Tuesday, January 11, 2011

  Actual Average Record
Temperature  
Mean Temperature 12 °F 15 °F  
Max Temperature 20 °F 24 °F 52 °F (1990)
Min Temperature 3 °F 7 °F -27 °F (1982)
Degree Days  
Heating Degree Days 53 50  
Month to date heating degree days 570 545  
Since 1 July heating degree days 3463 3688  
Cooling Degree Days 0 0  
Month to date cooling degree days 0 0  
Year to date cooling degree days 0 0  
Moisture  
Dew Point 10 °F    
Average Humidity 86    
Maximum Humidity 92    
Minimum Humidity 80    
Precipitation  
Precipitation 0.00 in 0.01 in 1.37 in (1975)
Month to date precipitation T 0.08  
Year to date precipitation T  
Sea Level Pressure  
Sea Level Pressure 30.33 in    
Wind  
Wind Speed 13 mph (NNW)    
Max Wind Speed 18 mph    
Max Gust Speed 22 mph    
Visibility 6 miles    
Events Snow    
T = Trace of Precipitation, MM = Missing Value Source: NWS Daily Summary

Daily Weather History Graph

Daily Weather History Graph

Search for Another Location

Airport or City:

Trip Planner

Search our weather history database for the weather conditions in past years. The results will help you decide how hot, cold, wet, or windy it might be!

Date:

Astronomy

Jan. 11, 2011 Rise Set
Actual Time 7:50 AM CST 5:03 PM CST
Civil Twilight 7:18 AM CST 5:35 PM CST
Nautical Twilight 6:42 AM CST 6:11 PM CST
Astronomical Twilight 6:08 AM CST 6:45 PM CST
Moon 10:56 AM CST (1/11) No Moon Set
Length of Visible Light 10h 17m
Length of Day
9h 13m
Waxing Crescent, 43% of the Moon is Illuminated
Jan 11
Waxing Crescent
Jan 12
First Quarter
Jan 19
Full
Jan 26
Last Quarter
Feb 2
New

Hourly Weather History & Observations

Time (CST) Temp. Windchill Dew Point Humidity Pressure Visibility Wind Dir Wind Speed Gust Speed Precip Events Conditions
12:52 AM 19.9 °F 9.3 °F 18.0 °F 92% 30.27 in 1.8 mi ENE 9.2 mph - 0.00 in Snow Light Snow
1:03 AM 19.4 °F 7.9 °F 17.6 °F 93% 30.20 in 2.5 mi ENE 10.4 mph - 0.00 in Snow Light Snow
2:52 AM 19.0 °F 8.2 °F 17.1 °F 92% 30.28 in 2.0 mi NE 9.2 mph - 0.00 in Snow Light Snow
3:10 AM 19.4 °F 8.6 °F 17.6 °F 93% 30.21 in 3.0 mi NE 9.2 mph - 0.00 in Snow Light Snow
3:52 AM 18.0 °F 7.7 °F 16.0 °F 92% 30.28 in 3.0 mi NNE 8.1 mph - 0.00 in Snow Light Snow
4:52 AM 16.0 °F 5.3 °F 14.0 °F 92% 30.28 in 6.0 mi North 8.1 mph - 0.00 in   Overcast
5:52 AM 16.0 °F 4.4 °F 12.9 °F 88% 30.28 in 5.0 mi North 9.2 mph - 0.00 in Snow Light Snow
6:52 AM 16.0 °F 4.4 °F 14.0 °F 92% 30.30 in 4.0 mi North 9.2 mph - 0.00 in Snow Light Snow
7:05 AM 17.6 °F 7.3 °F 14.0 °F 86% 30.23 in 2.5 mi North 8.1 mph - 0.00 in Snow Light Snow
7:52 AM 17.1 °F 5.8 °F 15.1 °F 92% 30.31 in 2.5 mi NNW 9.2 mph - 0.00 in Snow Light Snow
8:03 AM 17.6 °F 5.7 °F 15.8 °F 93% 30.24 in 2.5 mi NNW 10.4 mph - 0.00 in Snow Light Snow
8:12 AM 17.6 °F 6.4 °F 14.0 °F 86% 30.24 in 2.5 mi NNW 9.2 mph - 0.00 in Snow Light Snow
8:31 AM 15.8 °F 4.2 °F 14.0 °F 93% 30.25 in 3.0 mi NNW 9.2 mph - 0.00 in Snow Light Snow
8:47 AM 15.8 °F 4.2 °F 14.0 °F 93% 30.25 in 3.0 mi NW 9.2 mph - 0.00 in Snow Light Snow
8:52 AM 16.0 °F 4.4 °F 14.0 °F 92% 30.33 in 4.0 mi NNW 9.2 mph - 0.00 in Snow Light Snow
9:08 AM 15.8 °F 4.2 °F 14.0 °F 93% 30.26 in 4.0 mi NW 9.2 mph - 0.00 in Snow Light Snow
9:52 AM 16.0 °F 3.6 °F 12.9 °F 88% 30.34 in 2.5 mi NW 10.4 mph - 0.00 in Snow Light Snow
10:13 AM 15.8 °F 3.4 °F 12.2 °F 86% 30.27 in 2.5 mi NW 10.4 mph - 0.00 in Snow Light Snow
10:26 AM 15.8 °F 2.7 °F 12.2 °F 86% 30.28 in 4.0 mi NW 11.5 mph - 0.00 in Snow Light Snow
10:52 AM 16.0 °F 1.1 °F 12.9 °F 88% 30.35 in 5.0 mi NW 15.0 mph - 0.00 in Snow Light Snow
11:00 AM 15.8 °F 0.9 °F 12.2 °F 86% 30.27 in 4.0 mi NW 15.0 mph - 0.00 in Snow Light Snow
11:52 AM 15.1 °F 1.1 °F 10.9 °F 84% 30.34 in 5.0 mi NNW 12.7 mph - 0.00 in   Mostly Cloudy
12:16 PM 15.8 °F 1.4 °F 10.4 °F 79% 30.26 in 5.0 mi NW 13.8 mph - N/A   Mostly Cloudy
12:24 PM 15.8 °F 1.4 °F 10.4 °F 79% 30.26 in 5.0 mi NNW 13.8 mph - N/A   Mostly Cloudy
12:52 PM 15.1 °F 0.5 °F 10.9 °F 84% 30.32 in 7.0 mi NW 13.8 mph - N/A   Mostly Cloudy
1:52 PM 14.0 °F 0.5 °F 10.0 °F 84% 30.34 in 5.0 mi NW 11.5 mph - N/A   Mostly Cloudy
2:52 PM 10.9 °F -5.9 °F 7.0 °F 84% 30.37 in 10.0 mi WNW 16.1 mph - N/A   Clear
3:18 PM 10.4 °F -6.0 °F 6.8 °F 85% 30.30 in 10.0 mi NW 15.0 mph - N/A   Mostly Cloudy
3:52 PM 10.9 °F -5.4 °F 6.1 °F 81% 30.40 in 10.0 mi NW 15.0 mph - N/A   Mostly Cloudy
4:52 PM 10.0 °F -7.1 °F 6.1 °F 84% 30.42 in 6.0 mi WNW 16.1 mph - N/A   Partly Cloudy
5:52 PM 8.1 °F -9.6 °F 3.9 °F 83% 30.44 in 10.0 mi WNW 16.1 mph - 0.00 in   Overcast
6:52 PM 7.0 °F -11.6 °F 3.0 °F 84% 30.45 in 6.0 mi WNW 17.3 mph - 0.00 in Snow Light Snow
7:38 PM 6.8 °F -11.3 °F 1.4 °F 79% 30.37 in 6.0 mi WNW 16.1 mph - 0.00 in Snow Light Snow
7:52 PM 5.0 °F -13.6 °F 1.9 °F 87% 30.46 in 8.0 mi WNW 16.1 mph - 0.00 in   Overcast
8:52 PM 3.9 °F -15.0 °F 1.0 °F 88% 30.48 in 10.0 mi NW 16.1 mph - N/A   Overcast
9:50 PM 3.2 °F -15.3 °F 1.4 °F 92% 30.41 in 10.0 mi NW 15.0 mph - N/A   Scattered Clouds
9:52 PM 3.9 °F -15.0 °F 1.0 °F 88% 30.50 in 10.0 mi NW 16.1 mph - N/A   Partly Cloudy
10:20 PM 3.2 °F -13.9 °F -0.4 °F 85% 30.42 in 10.0 mi WNW 12.7 mph - N/A   Mostly Cloudy
10:33 PM 3.2 °F -13.9 °F -0.4 °F 85% 30.42 in 10.0 mi NW 12.7 mph - N/A   Scattered Clouds
10:52 PM 3.0 °F -14.8 °F -0.0 °F 87% 30.51 in 10.0 mi NW 13.8 mph - N/A   Clear
11:52 PM 3.9 °F -14.3 °F 1.0 °F 88% 30.53 in 10.0 mi WNW 15.0 mph - N/A   Clear